Regional Weather Roundup
Issued by NWS Cleveland, OH

Home | Current Version | Previous Version | Graphics & Text | Print | Product List | Glossary On
Versions: 1 2 3 4 5 6 7 8 9 10 11 12 13 14 15 16 17 18 19 20 21 22 23 24 25 26 27 28 29 30 31 32 33 34 35 36 37 38 39 40 41 42 43 44 45 46 47 48 49 50
000
ASUS41 KCLE 211600
RWRCLE
OHIO REGIONAL WEATHER ROUNDUP
NATIONAL WEATHER SERVICE WILMINGTON, OH
1100 AM EST WED FEB 21 2018

NOTE: "FAIR" INDICATES FEW OR NO CLOUDS BELOW 12,000 FEET WITH NO
SIGNIFICANT WEATHER AND/OR OBSTRUCTIONS TO VISIBILITY.

OHZ001>008-015>018-024>027-034-035-043-044-211700-
   NORTHWEST OHIO

CITY           SKY/WX    TMP DP  RH WIND       PRES   REMARKS
DEFIANCE       LGT RAIN  37  33  85 NW12      30.45R
FINDLAY        LGT RAIN  42  37  82 N14       30.40R
TOLEDO EXPRESS LGT RAIN  38  37  97 N12       30.42R
TOLEDO EXEC    LGT RAIN  39  36  89 N9        30.43R
LIMA           LGT RAIN  40  39  97 NW14      30.40R
$$

OHZ009>014-019>023-028>033-038-089-211700-
   NORTHEAST OHIO

CITY           SKY/WX    TMP DP  RH WIND       PRES   REMARKS
CLE-HOPKINS    LGT RAIN  41  40  96 N13       30.39R FOG
CLE-LAKEFRONT  LGT RAIN  39  37  92 N7        30.38R FOG
CUY CO. ARPT   LGT RAIN  39  39 100 N12       30.37R VSB 1
LORAIN-ELYRIA  LGT RAIN  41  36  82 N14       30.38R
ASHTABULA      CLOUDY    39  38  96 N6        30.34R
AKRON-CANTON   LGT RAIN  50  47  89 N10       30.31R FOG
WOOSTER        NOT AVBL
MANSFIELD      CLOUDY    44  43  96 N13       30.35R
YOUNGSTOWN     LGT RAIN  49  48  97 NW13      30.30R FOG
$$

OHZ042-051>053-060>062-070>072-077>081-211700-
  SOUTHWEST OHIO

CITY           SKY/WX    TMP DP  RH WIND       PRES   REMARKS
CINC-COVINGTON LGT RAIN  51  51 100 N17       30.35R FOG
CINC-LUNKEN    LGT RAIN  56  55  97 N15       30.35R FOG
HAMILTON       LGT RAIN  50  50 100 NW9       30.38R
DAYTON         NOT AVBL
WRIGHT-PAT AFB NOT AVBL
DAYTON GENERAL LGT RAIN  47  44  90 NW13      30.37R
WILMINGTON     CLOUDY    56  56 100 N3        30.33R
$$

OHZ036-037-039>041-045>050-054>059-063>069-073>076-082>088-211700-
  CENTRAL AND SOUTHEAST OHIO

CITY           SKY/WX    TMP DP  RH WIND       PRES   REMARKS
COLUMBUS       LGT RAIN  58  56  93 NW7       30.32R FOG
OSU AIRPORT    LGT RAIN  51  50  96 NW13      30.35R
BOLTON FIELD   LGT RAIN  57  55  94 N5        30.33R
RICKENBACK AFB NOT AVBL
NEWARK         LGT RAIN  58  55  90 NW3       30.31R
MARION         LGT RAIN  45  44  97 NW16      30.37R FOG
LANCASTER      CLOUDY    58  56  93 N3        30.32R
ZANESVILLE     CLOUDY    59  52  77 NW8       30.31R
NEW PHILLY     LGT RAIN  58  54  86 CALM      30.31R FOG
$$




USA.gov is the U.S. government's official web portal to all federal, state and local government web resources and services.